ECMWFFLT2_850_spd_000.txt.gz
Wind_Speed
11 11 10 11 10 6 4 4 5 5 7 7 3 5 2 3 2 4 3 2 4 2 4 6 4 7 10 15 17 20 24 27 30 33 35 38 39 41 43 45 47 48 48 49 50 49 47 46 44 45 45 44 43 42 40 38 35 32 30 29 27 26 25
12 15 13 10 10 9 5 6 7 3 2 4 4 2 2 4 1 4 3 3 3 2 3 5 2 7 11 13 14 16 21 25 28 32 37 39 42 43 45 46 47 48 49 50 50 51 50 48 47 47 47 46 45 43 42 41 39 36 33 31 30 29 27
10 11 10 8 8 8 6 5 6 5 4 2 1 3 2 1 2 3 4 4 3 4 5 4 5 9 11 12 13 13 15 21 26 31 35 38 40 41 41 43 45 47 49 51 51 52 51 50 49 48 47 47 46 44 43 42 40 37 35 33 32 31 29
8 6 5 7 7 4 2 4 4 3 4 6 3 3 4 4 3 3 4 5 3 5 6 7 10 10 10 11 12 12 16 23 29 31 33 37 40 41 42 44 46 48 51 52 52 53 53 52 51 50 50 49 47 46 45 43 41 38 36 35 35 34 31
8 7 5 8 8 6 3 4 4 2 0 3 3 2 2 5 4 3 3 3 5 5 5 8 12 12 13 15 15 13 16 25 31 33 37 40 42 44 45 46 48 50 52 52 53 54 54 54 52 52 52 51 49 48 46 46 43 41 38 36 37 36 32
5 6 8 11 12 10 7 6 6 5 3 4 4 3 2 2 5 5 5 4 6 6 4 8 11 11 11 15 15 12 17 27 33 35 38 40 42 44 46 48 50 51 52 54 55 55 54 53 53 54 54 52 52 50 49 49 46 43 40 38 38 37 33
7 7 10 13 13 11 9 6 6 6 5 5 6 5 4 2 3 3 4 3 6 6 5 7 7 8 10 16 18 16 21 31 34 33 35 39 43 46 48 50 51 52 53 55 55 54 54 54 55 55 55 55 54 53 52 51 49 46 41 39 38 37 35
6 7 9 10 10 9 6 4 5 6 5 6 6 5 5 4 4 4 3 3 6 6 4 7 8 11 14 20 25 24 24 29 34 34 34 38 43 47 48 50 52 53 53 53 53 54 54 54 54 55 55 55 55 54 53 52 50 46 42 40 39 38 36
4 5 6 7 7 6 4 3 6 7 7 8 5 3 3 3 5 6 5 4 7 5 1 5 8 12 13 16 24 29 28 29 32 34 36 40 43 46 48 50 52 51 51 51 53 54 55 54 55 55 55 56 55 55 54 53 50 46 43 41 40 39 36
5 6 7 7 5 4 2 4 7 8 9 12 7 4 4 4 4 5 6 5 7 5 1 3 7 11 12 11 17 25 29 31 33 34 36 40 42 44 47 49 50 50 50 51 53 54 55 55 55 56 56 56 56 55 54 52 49 46 43 43 42 40 37
8 8 9 8 7 7 6 6 10 9 9 11 8 6 5 6 4 4 6 6 5 4 4 6 8 11 13 11 10 17 23 27 32 34 35 39 42 44 46 46 48 48 47 48 51 52 54 55 55 56 57 56 56 55 54 51 48 45 44 45 43 41 38
13 10 9 8 9 11 10 10 12 10 9 10 9 7 7 7 7 4 9 7 11 11 11 12 12 12 11 8 10 18 23 26 31 34 34 38 40 41 43 43 44 45 45 47 50 52 54 55 56 56 57 56 55 55 53 50 47 45 45 46 44 42 39
14 12 10 8 10 12 12 12 13 12 11 10 9 10 9 9 9 8 9 11 15 15 14 14 16 15 14 14 20 27 28 28 31 31 31 35 37 38 39 39 41 43 45 47 50 53 55 56 56 56 56 56 55 55 53 50 48 46 46 47 45 43 41
12 12 11 9 9 10 12 15 15 13 12 12 12 12 10 10 11 10 11 14 14 14 15 18 19 20 20 22 25 27 28 29 29 27 28 31 34 36 35 35 37 41 44 47 49 52 54 55 56 57 56 56 56 56 55 52 49 47 47 47 46 44 44
9 10 8 7 8 8 11 14 13 10 10 11 12 12 10 9 9 7 12 14 11 10 11 13 17 20 20 19 19 22 26 29 27 25 27 29 31 33 33 33 34 37 42 45 48 51 53 55 57 57 56 56 56 56 56 54 51 48 48 49 47 46 45
6 6 5 4 4 3 5 10 8 5 4 5 6 5 5 6 6 5 9 10 10 9 5 5 9 14 16 15 16 21 25 28 27 25 27 28 27 27 28 30 32 35 40 43 45 49 52 54 56 56 56 55 55 56 57 55 52 49 49 49 46 46 44
5 5 7 7 6 5 3 7 4 5 5 5 4 3 2 3 6 6 6 8 10 7 7 8 8 10 13 16 21 26 27 27 27 24 24 25 23 20 19 20 23 27 32 35 40 46 49 52 54 54 55 55 55 56 56 55 53 51 50 49 48 48 44
5 5 6 7 6 4 3 7 1 6 9 9 8 5 3 0 4 6 4 6 6 7 10 12 12 12 16 21 26 29 27 25 23 22 22 21 19 17 14 12 12 14 17 22 29 37 45 49 49 49 52 53 53 53 54 55 54 52 51 50 49 49 44
3 2 6 5 2 4 4 6 2 6 10 11 10 7 6 6 7 8 7 4 4 7 9 12 14 15 18 21 23 23 22 21 20 19 17 16 14 13 11 8 7 8 9 11 16 25 34 40 44 47 50 51 52 53 53 53 51 50 49 47 46 46 43
3 3 5 5 7 4 3 2 1 4 7 8 9 9 9 10 6 7 9 8 7 8 11 16 21 21 19 18 18 18 17 15 14 13 13 14 12 9 7 5 5 7 7 7 9 13 20 28 36 42 46 49 51 50 47 43 40 41 43 41 42 42 41
4 5 3 2 2 3 5 2 2 2 2 5 7 5 4 8 8 5 6 9 10 11 13 18 24 24 18 12 9 12 12 9 7 8 11 14 11 6 5 4 4 7 5 3 3 6 12 19 27 33 39 44 45 41 39 39 39 41 43 44 44 44 45
2 5 4 2 2 2 3 5 6 5 0 8 10 6 3 6 10 9 2 9 11 11 13 18 21 19 12 4 3 7 9 7 8 10 12 13 8 2 4 6 4 5 5 2 1 4 9 16 22 29 36 40 38 37 41 44 45 44 44 45 44 46 47
3 5 4 1 3 4 4 7 7 9 4 6 9 8 3 6 13 13 1 8 10 9 13 17 17 12 6 4 3 3 7 9 10 13 13 9 4 3 5 6 7 9 8 4 5 7 9 12 18 25 35 39 37 37 41 43 43 42 41 41 42 46 48
4 4 3 1 2 1 3 7 8 10 4 4 7 5 3 8 14 10 3 7 8 10 12 12 10 6 4 6 2 4 7 11 9 9 8 3 3 6 7 7 7 7 7 7 10 12 12 11 13 20 30 36 36 37 38 40 42 42 40 40 42 46 46
4 3 1 1 1 1 4 7 9 12 6 7 7 3 6 8 12 12 16 15 14 15 17 14 10 9 7 8 13 14 10 9 6 5 4 1 1 2 2 5 7 9 11 12 13 13 12 10 10 13 22 30 35 39 40 42 46 44 37 36 41 44 39
2 2 1 1 1 3 8 8 11 14 7 4 3 4 2 6 10 18 25 23 21 23 24 21 18 17 17 16 17 17 13 10 8 6 4 4 4 5 8 10 13 16 17 16 16 16 14 11 10 11 16 24 32 38 41 44 46 42 33 30 36 40 36
3 3 3 1 2 8 15 11 8 11 5 5 5 5 7 13 16 20 24 24 24 23 22 21 21 20 19 19 18 16 13 11 11 10 9 9 9 10 10 10 14 17 17 17 18 18 15 12 12 12 15 21 28 35 39 41 41 38 29 26 30 34 35
3 3 3 1 5 10 12 7 6 6 8 12 13 14 16 20 23 23 24 26 26 25 23 23 23 21 20 19 18 16 14 13 13 13 13 14 14 14 14 12 13 15 17 18 18 16 14 12 13 13 16 21 27 31 32 33 34 32 27 26 28 29 29
4 4 1 1 5 10 17 21 18 16 20 23 24 25 25 26 27 26 27 27 26 24 24 25 25 24 23 21 18 17 15 14 15 16 16 17 15 14 15 14 13 16 19 19 17 16 13 11 11 13 17 22 25 26 26 25 26 25 23 25 27 25 23
5 5 3 4 8 13 18 22 22 23 24 22 23 26 27 26 25 25 26 27 25 22 21 23 23 22 21 20 19 18 17 17 17 17 17 17 15 13 13 13 14 15 17 16 15 13 11 11 13 17 21 22 19 18 20 21 21 21 23 26 25 22 21
4 3 2 3 7 12 15 19 21 23 24 22 21 21 20 20 20 19 19 21 24 24 23 23 23 21 20 20 19 18 17 17 16 15 15 16 15 14 13 11 12 12 12 13 13 12 12 14 16 19 20 20 16 13 15 18 17 14 17 20 18 15 15
3 2 3 2 7 14 17 19 19 19 21 23 22 19 17 16 16 15 14 15 20 25 25 24 24 23 22 21 20 19 17 16 15 14 14 15 15 13 12 10 11 11 11 13 15 16 16 16 18 17 14 14 15 14 12 12 13 15 16 13 12 12 11
3 2 2 2 6 12 14 16 16 15 16 18 20 19 18 17 16 15 13 12 14 20 23 23 23 23 22 21 21 23 21 17 15 14 13 13 13 12 11 10 10 10 11 15 19 20 20 20 20 19 19 22 24 22 20 19 17 14 14 16 15 14 12
3 2 4 4 4 4 6 9 12 12 11 13 17 19 20 21 19 15 14 12 12 14 16 19 20 22 22 20 19 21 20 18 16 13 11 11 11 11 11 9 9 11 13 17 21 22 22 22 24 26 27 27 25 24 22 19 14 9 10 13 14 13 13
2 3 6 9 9 6 5 10 13 13 13 14 16 17 18 19 18 16 16 16 15 13 12 14 15 16 16 15 15 16 15 15 15 12 11 10 10 9 10 9 10 13 18 22 24 25 26 27 30 31 28 23 19 16 15 13 9 7 6 8 5 3 5
3 3 5 10 12 11 12 16 15 14 14 14 14 15 16 17 16 16 16 16 15 12 11 12 12 13 14 14 14 14 13 15 16 14 11 11 10 10 10 12 14 18 23 26 26 26 27 27 27 26 21 14 8 8 12 14 12 10 13 12 10 13 12
6 1 5 14 17 14 13 14 14 14 14 13 14 15 16 16 16 14 14 15 15 13 13 13 13 15 18 18 16 13 11 13 17 16 14 13 12 12 12 14 18 23 27 28 25 23 22 19 17 16 15 14 14 14 15 15 15 15 13 9 10 13 13

ECMWFFLT2_850_spd_006.txt.gz
Wind_Speed
6 8 7 7 7 5 2 3 4 5 6 7 3 2 2 3 2 2 2 3 3 2 6 7 2 4 8 10 14 19 21 19 22 29 33 36 39 42 44 46 47 48 47 48 48 48 48 46 45 44 44 43 42 42 41 41 41 41 42 42 41 39 37
9 11 10 5 7 9 5 4 7 2 3 3 3 2 1 2 3 4 2 5 3 1 3 6 3 6 10 9 8 12 15 18 24 30 34 38 41 43 44 46 48 48 49 49 49 49 48 46 45 44 44 44 44 43 43 43 43 43 44 44 43 41 39
7 7 8 5 6 6 4 5 7 5 3 2 1 3 2 1 3 4 3 3 4 4 4 5 5 9 13 11 7 7 10 17 26 31 35 38 40 40 41 44 46 47 48 49 49 49 48 46 45 44 44 44 45 45 44 44 44 44 45 45 44 42 40
4 4 6 8 8 3 2 4 5 3 3 5 3 3 4 4 4 3 2 3 3 6 7 7 10 12 13 11 8 8 12 21 29 30 32 36 38 40 42 44 46 47 48 50 51 50 49 47 45 44 45 45 46 46 46 46 45 45 45 46 45 44 43
3 4 6 11 11 5 3 4 5 2 1 2 2 2 4 4 4 4 3 3 5 7 6 9 13 12 12 12 11 11 14 23 28 28 31 36 39 41 43 44 46 47 48 50 51 51 50 48 46 46 47 47 47 47 47 47 47 46 47 48 47 47 46
4 7 7 9 11 9 8 6 6 6 4 4 3 4 1 2 3 5 5 4 6 7 6 9 12 10 9 12 12 11 15 22 26 28 34 39 40 42 43 44 45 46 47 48 49 50 50 49 49 48 48 49 49 49 49 49 49 49 49 50 50 50 49
6 9 7 4 7 9 9 7 7 7 6 6 6 6 3 1 1 2 3 3 7 7 5 9 10 8 8 12 12 11 15 23 28 31 36 38 39 41 42 43 44 44 46 47 47 49 50 50 51 50 49 50 50 50 50 50 51 51 51 51 52 52 51
6 8 6 3 2 5 6 6 7 8 8 8 7 6 5 4 3 3 2 3 6 6 3 5 7 7 8 13 17 17 17 22 29 33 34 35 37 39 40 41 42 42 43 44 46 48 49 50 51 51 51 52 52 52 52 52 53 52 52 52 53 54 54
6 7 6 4 2 4 5 5 6 9 11 10 4 3 4 5 6 7 5 4 6 6 3 2 3 6 7 11 18 22 20 22 28 31 33 34 35 36 38 39 40 40 41 43 45 47 49 50 50 51 51 52 52 53 53 53 53 53 53 53 54 55 56
8 8 7 6 4 4 3 3 6 8 10 12 7 3 4 6 5 6 6 5 6 7 4 2 3 6 6 8 13 18 20 22 26 29 31 33 34 36 38 39 39 40 41 42 44 45 47 47 48 49 50 51 51 52 52 53 53 53 53 53 54 55 56
10 9 9 7 5 5 5 5 8 8 9 12 9 5 6 7 4 5 7 7 6 7 6 6 6 6 8 8 9 14 20 22 25 28 31 32 34 36 38 38 39 40 40 41 42 43 44 44 44 45 46 48 49 50 50 51 51 51 51 51 53 55 56
14 13 12 8 6 7 8 8 10 10 10 12 10 7 7 7 7 6 9 6 8 9 9 10 9 7 7 7 9 16 23 25 27 29 29 30 32 35 36 37 39 39 40 41 41 41 41 41 42 43 44 45 46 47 48 48 49 49 50 51 53 55 56
16 16 14 10 8 7 7 8 10 10 11 13 14 12 10 9 8 9 8 9 10 10 10 11 12 11 12 14 19 22 22 22 24 25 27 30 33 35 37 38 39 39 39 40 39 39 40 40 41 41 42 43 44 45 46 46 47 48 50 52 53 54 55
15 16 14 11 11 9 7 7 8 9 10 13 14 13 12 12 12 10 10 13 13 11 10 12 14 15 15 13 16 19 20 22 24 26 29 33 36 39 39 39 39 40 39 39 38 39 39 39 40 40 41 42 42 43 44 44 45 47 49 50 51 51 53
11 12 11 9 11 12 12 12 10 7 8 8 9 8 6 8 10 8 8 10 10 9 8 9 9 10 11 9 12 19 24 26 27 28 31 36 39 40 40 39 39 39 39 38 38 38 39 39 39 39 39 39 39 40 41 42 43 45 46 47 48 49 51
7 7 10 11 9 9 11 14 13 9 7 7 6 5 5 7 8 4 6 7 9 9 6 5 3 6 9 9 12 19 23 26 29 32 36 40 42 41 39 38 39 38 38 39 39 39 39 38 37 36 35 35 36 37 38 39 41 41 42 43 45 47 47
6 6 9 9 6 4 7 11 12 11 9 7 5 3 6 8 6 6 6 7 9 6 6 6 5 6 8 12 17 22 25 30 34 37 40 42 41 39 38 38 38 38 37 37 38 38 36 35 34 32 31 31 31 32 34 36 37 38 39 41 43 43 43
7 6 5 4 4 6 7 7 8 12 13 12 8 4 3 3 2 3 6 7 5 3 7 9 10 8 8 12 18 21 23 28 35 39 39 38 36 35 35 35 35 34 33 33 33 32 28 25 22 20 20 20 21 24 28 31 33 35 36 38 39 40 40
4 1 6 4 5 8 6 2 1 6 11 13 10 6 4 3 4 4 6 7 7 5 7 8 7 5 2 3 6 9 13 20 28 32 33 31 31 32 31 31 31 29 27 26 23 17 11 7 4 4 5 6 10 14 19 23 26 29 32 34 36 37 39
2 2 5 7 7 5 3 3 5 4 5 9 10 7 3 3 3 3 6 7 7 6 7 6 5 8 9 8 6 2 7 13 17 20 25 26 27 26 24 23 20 17 15 13 12 12 11 9 6 3 2 2 5 8 11 16 20 23 27 30 33 35 37
3 3 3 3 1 1 1 2 2 2 3 5 6 4 1 1 3 1 5 6 6 5 4 8 16 17 13 9 9 9 3 8 11 15 19 19 16 14 11 10 11 14 16 16 17 15 12 9 6 3 2 2 4 6 9 12 15 18 21 24 27 30 33
2 4 2 2 2 3 4 4 3 1 1 3 4 5 2 3 7 6 3 4 2 2 3 10 20 17 10 4 7 10 4 6 10 12 13 13 13 15 18 19 19 20 20 19 17 15 11 8 5 5 5 5 4 4 7 8 10 13 15 18 22 26 29
2 5 4 3 4 4 5 6 5 3 3 3 4 5 2 4 10 10 4 1 2 4 4 5 9 10 7 1 5 8 8 6 8 15 20 21 22 23 22 20 19 19 19 17 16 14 10 6 6 5 4 4 3 3 4 5 7 9 12 16 20 23 26
1 4 3 1 2 2 3 4 5 9 8 0 6 5 1 5 10 12 7 3 3 9 15 14 8 6 6 3 4 13 18 15 15 20 23 22 22 20 18 17 19 19 18 16 15 13 8 5 6 6 5 6 6 6 6 7 8 10 13 16 18 20 24
3 1 4 1 2 2 3 6 10 11 7 4 6 5 4 5 10 13 12 11 10 15 22 19 12 9 11 12 14 22 26 24 22 21 20 19 18 16 15 15 16 16 16 14 12 9 6 6 8 8 7 9 11 11 11 11 11 11 13 15 16 19 21
4 0 3 1 2 1 7 15 14 7 4 4 3 3 1 4 11 17 19 19 21 26 27 24 20 18 22 24 27 30 31 30 28 26 23 22 19 17 15 13 11 10 9 7 5 5 5 6 8 8 8 11 13 14 13 11 10 10 11 13 15 16 18
3 1 3 3 1 4 16 20 10 4 4 7 9 8 7 11 19 24 24 25 29 31 31 30 29 29 31 32 31 30 30 30 30 28 26 24 21 19 17 14 11 8 5 2 1 3 4 5 7 8 10 12 14 14 12 10 9 9 10 12 12 13 14
2 1 1 1 4 8 19 14 3 9 11 17 22 15 10 14 23 27 27 29 32 34 33 34 34 35 35 34 32 30 30 29 28 26 24 23 21 19 18 16 14 11 9 8 7 7 7 7 8 10 12 13 13 12 10 9 9 10 10 10 9 9 10
1 2 1 1 1 7 17 16 16 22 22 22 22 21 19 20 25 29 30 30 32 34 34 35 35 33 31 30 30 29 28 27 26 26 24 22 21 19 18 16 13 11 9 8 8 8 8 8 8 9 11 11 11 10 9 8 9 10 11 9 6 6 8
2 4 6 5 6 12 18 19 19 24 25 21 21 25 26 24 24 27 28 27 26 27 27 28 30 27 24 24 25 24 23 22 21 20 19 18 18 16 16 15 12 10 9 8 8 10 11 11 10 9 9 9 10 10 9 9 11 12 10 8 5 6 8
4 3 5 6 7 11 15 15 14 16 19 20 23 26 25 25 25 24 22 21 20 20 20 21 22 20 17 17 18 17 17 15 13 12 11 10 8 9 11 11 9 7 7 7 8 10 12 12 11 12 12 10 11 12 11 11 12 11 9 7 6 7 9
5 4 3 4 12 14 14 15 13 12 14 17 22 25 25 25 26 24 22 21 19 19 20 19 18 18 17 15 13 13 12 11 9 8 8 6 5 7 9 9 6 2 1 2 3 5 9 10 9 11 13 12 13 14 12 10 10 8 6 6 7 8 11
7 7 8 10 14 13 11 14 16 14 15 18 20 22 22 22 22 23 24 23 22 22 22 19 18 20 19 16 14 12 10 9 7 6 5 3 2 2 3 3 3 3 3 2 3 5 8 8 7 9 12 13 14 13 9 7 6 5 5 7 9 10 12
6 5 8 9 10 5 4 11 16 16 18 20 21 21 21 21 21 21 22 22 20 21 21 19 19 21 20 18 16 14 12 10 7 4 2 1 3 4 3 3 2 3 4 2 2 3 6 5 7 11 13 14 13 9 5 4 3 3 5 6 8 10 11
6 7 10 11 11 10 9 13 18 18 17 18 19 19 19 19 19 20 21 21 20 20 20 19 18 19 18 17 15 14 13 10 7 5 4 4 4 4 5 4 3 5 5 3 2 1 1 3 8 11 13 13 11 7 3 1 1 2 4 4 7 8 9
10 13 17 18 17 16 14 17 22 20 18 18 19 19 19 19 18 18 19 20 20 19 18 18 17 17 16 14 13 13 13 11 9 8 7 6 5 4 5 5 4 4 4 3 2 3 5 7 9 11 12 10 9 7 5 3 4 4 3 2 5 8 10
20 22 24 25 26 23 19 21 25 24 22 21 20 18 18 18 16 15 15 17 17 16 16 16 15 15 14 13 12 12 11 11 11 10 9 9 9 8 7 7 6 5 4 3 4 5 8 10 11 11 11 10 10 10 9 9 8 6 2 1 4 8 10

ECMWFFLT2_850_spd_009.txt.gz
Wind_Speed
8 10 8 9 9 7 4 5 7 4 3 6 4 1 1 2 4 4 5 4 3 1 8 9 7 8 10 10 9 13 16 17 18 21 27 32 34 37 42 48 51 51 50 49 49 47 45 43 42 41 40 39 39 39 39 39 38 38 38 37 38 38 38
9 10 11 11 11 7 4 7 8 4 1 2 2 3 3 4 8 4 4 7 5 3 4 3 2 7 11 11 9 9 11 16 20 24 30 36 38 42 46 49 52 53 52 51 50 49 47 45 42 41 40 39 39 39 39 39 39 39 39 39 39 39 39
9 8 9 10 10 7 1 4 9 6 4 5 2 4 5 6 8 4 4 7 6 6 5 3 4 7 9 10 6 8 11 16 21 24 30 35 39 41 44 47 50 52 53 53 52 50 48 46 44 42 40 39 39 40 40 40 40 40 40 41 41 41 41
7 7 8 10 11 6 1 3 8 4 4 5 4 3 4 6 7 4 5 5 4 6 6 6 10 9 8 10 7 8 12 17 22 24 26 31 37 40 43 45 48 51 53 53 53 51 49 47 45 42 41 41 40 40 41 42 42 42 42 42 43 43 43
5 7 8 12 13 9 5 7 8 5 2 2 3 3 2 4 6 5 6 7 4 4 5 8 12 11 10 11 9 7 11 17 23 24 25 32 38 40 41 43 47 49 50 51 51 50 49 47 45 43 43 43 41 41 42 43 44 44 44 44 44 44 44
7 9 8 11 15 12 10 8 8 9 7 4 6 7 3 3 5 4 5 8 5 6 6 8 10 11 11 12 9 8 11 14 17 21 26 33 37 39 40 43 45 47 48 49 49 49 48 48 48 47 45 44 43 43 43 43 44 45 45 45 45 45 46
10 10 7 5 9 11 12 11 10 11 10 9 10 9 4 4 3 1 1 6 5 5 6 8 9 10 11 10 8 9 12 13 15 19 24 30 34 36 39 41 43 44 46 46 46 47 47 47 48 48 46 45 44 44 44 44 45 46 45 45 45 46 46
7 7 5 2 2 7 11 12 12 12 12 13 12 6 4 5 6 4 3 6 5 3 2 4 6 8 9 11 11 12 15 16 17 19 23 27 31 34 37 40 41 41 43 44 44 45 45 45 46 47 47 47 45 45 45 45 46 45 45 45 46 46 46
6 7 8 6 4 6 8 8 10 13 15 15 8 2 3 6 9 11 8 7 5 3 1 2 4 7 9 13 14 13 14 15 15 17 21 25 28 32 36 38 39 40 41 41 42 42 43 43 44 45 47 48 47 47 46 46 46 46 45 45 46 47 46
9 9 10 8 5 5 5 6 9 13 17 18 9 3 4 7 8 11 10 7 4 2 1 2 4 6 9 13 14 12 14 18 17 18 21 24 27 32 35 37 38 39 39 39 39 40 40 41 41 42 44 46 47 48 47 47 46 46 46 46 47 48 46
11 10 9 6 5 6 8 9 12 12 15 17 11 5 7 5 4 7 9 7 6 7 6 5 6 7 10 12 10 9 15 23 22 20 21 23 28 32 34 36 36 36 37 38 37 38 38 38 39 38 40 42 45 46 46 47 46 46 47 47 48 49 48
15 15 14 11 10 12 13 13 15 15 15 17 15 13 10 7 5 9 8 7 9 11 9 9 10 10 9 8 8 11 19 25 23 20 19 21 26 30 32 35 35 35 37 37 37 37 36 36 36 36 37 39 41 42 43 44 46 46 47 48 48 48 48
18 20 19 13 12 13 14 15 17 17 17 18 18 17 12 9 8 12 7 8 10 11 11 11 11 11 10 13 18 20 20 22 21 19 20 23 26 30 34 36 36 36 36 36 36 35 34 35 35 34 36 38 38 39 39 40 43 44 46 47 47 46 44
18 21 20 14 13 13 13 15 17 16 18 20 20 20 17 14 15 15 9 10 12 12 12 12 13 17 17 18 20 19 17 20 22 22 22 23 27 33 36 37 37 37 35 35 34 34 33 33 32 32 33 34 34 34 35 38 40 42 43 45 43 41 41
13 17 17 14 15 16 15 17 16 15 16 17 18 17 14 13 15 13 10 10 10 10 11 10 9 12 12 11 11 14 18 22 22 22 24 25 29 35 38 38 38 36 34 34 34 33 32 30 29 29 29 29 31 33 35 37 38 37 38 39 38 38 39
8 10 14 15 15 15 17 19 17 15 14 13 13 11 9 10 12 9 6 7 7 7 8 7 5 5 7 9 11 15 20 21 22 26 29 30 32 36 37 39 39 36 34 34 33 31 30 29 28 28 28 30 32 33 33 31 30 31 32 33 33 34 36
7 7 10 13 11 10 12 14 15 15 12 11 11 10 10 13 13 9 7 8 8 5 4 6 8 8 9 11 13 17 20 22 25 29 32 34 35 37 40 41 40 37 35 33 31 30 28 27 28 29 29 30 28 24 22 21 21 24 25 26 28 30 32
7 5 4 6 7 9 8 7 11 16 16 16 15 11 11 13 11 6 4 6 6 5 6 8 9 8 7 8 11 16 19 20 24 28 31 32 32 34 37 38 38 37 35 33 31 29 28 29 29 27 23 19 15 13 14 14 16 18 19 20 22 24 27
4 1 3 6 8 8 4 1 4 10 15 18 15 6 4 7 7 4 5 7 6 4 6 6 6 7 8 7 8 11 14 18 21 25 29 28 26 27 28 31 35 36 35 34 32 31 30 28 23 17 12 10 10 10 11 11 11 12 13 14 15 17 21
2 1 4 6 5 1 1 1 2 3 6 10 9 4 2 4 5 6 8 9 5 3 4 5 5 7 9 6 4 5 10 15 17 19 23 26 27 26 23 23 30 34 34 32 30 27 23 18 13 12 13 13 12 11 10 8 7 6 6 7 9 11 15
2 3 4 3 3 3 3 2 3 3 2 5 7 7 6 4 3 6 7 7 5 4 5 7 8 9 9 6 2 3 6 12 15 15 16 17 19 21 19 18 22 25 24 21 18 16 15 16 18 18 17 15 13 11 8 6 5 4 4 4 5 6 9
1 3 4 3 6 6 4 3 3 1 3 3 4 5 5 4 2 6 7 7 7 7 6 8 11 10 6 5 1 7 6 6 10 13 14 12 11 14 15 15 16 17 15 15 17 20 22 22 21 18 16 14 11 9 7 6 5 4 3 2 1 3 6
1 2 5 5 6 4 1 2 2 3 4 3 3 6 6 3 1 3 6 7 7 6 7 11 12 8 5 4 1 8 6 1 5 9 12 12 11 12 13 15 18 20 21 25 27 26 24 21 18 16 14 12 10 9 9 8 6 5 3 2 1 2 5
1 1 4 5 4 1 3 5 7 7 5 2 6 8 5 2 2 2 4 5 6 7 11 12 7 2 3 4 2 5 5 7 9 9 12 14 15 16 19 22 25 28 29 30 28 25 22 19 17 15 13 12 11 11 10 9 8 6 4 3 2 2 4
0 1 3 5 3 1 4 10 12 8 2 5 8 7 2 3 3 2 3 8 9 9 11 10 6 6 9 11 11 14 17 20 21 21 21 21 21 21 22 24 27 29 29 27 24 21 19 17 15 14 12 10 10 10 10 10 9 6 3 2 1 2 4
1 0 3 5 2 3 10 18 15 5 3 4 4 3 3 5 8 10 11 13 16 17 18 18 16 17 18 20 24 28 31 33 33 32 31 31 30 27 25 24 24 25 24 22 19 16 13 11 12 11 9 7 6 7 9 8 5 3 1 1 1 3 4
0 1 2 5 3 4 18 21 11 3 1 2 6 8 7 10 15 18 17 16 18 21 23 23 23 24 26 29 34 37 37 37 37 35 34 34 34 32 29 26 23 22 21 19 16 15 12 10 9 8 6 4 2 2 4 4 3 3 2 1 3 4 4
1 1 1 2 2 9 19 16 3 4 7 9 10 9 9 13 18 21 20 20 23 26 27 27 28 31 34 36 38 38 38 37 36 35 33 32 31 30 29 27 24 22 21 20 17 16 14 11 9 7 6 4 3 2 1 3 4 2 1 3 4 4 4
1 2 1 4 7 12 16 13 8 10 15 18 14 12 12 15 20 24 24 25 28 30 31 32 34 35 35 34 34 33 33 33 33 33 32 30 29 27 26 24 21 20 20 18 16 14 12 11 11 11 9 7 6 5 3 2 2 1 2 3 3 3 3
2 5 1 5 7 11 15 14 11 10 13 16 16 17 18 18 21 25 24 23 25 26 28 31 32 31 30 30 29 27 26 26 26 26 26 25 24 22 21 20 18 16 16 15 13 12 11 11 10 9 9 7 6 5 2 2 2 2 3 3 2 1 3
5 4 3 2 5 9 12 10 9 10 13 16 18 21 22 22 24 25 24 23 23 23 24 26 27 26 26 26 25 23 22 21 20 19 18 18 16 14 14 14 12 10 9 8 8 9 8 6 3 4 5 4 5 6 5 6 6 4 2 2 1 3 4
4 4 7 5 3 4 7 6 5 8 14 20 21 21 22 23 25 25 25 24 23 22 22 22 23 23 23 22 21 20 18 17 16 15 14 13 11 9 8 7 7 7 6 5 6 6 4 3 7 8 8 8 10 10 9 10 9 6 4 3 4 5 5
5 6 7 7 6 3 4 3 4 9 16 22 23 23 24 26 28 29 29 28 26 24 23 22 23 24 22 20 20 19 17 15 14 13 11 10 9 7 6 5 6 7 7 6 5 4 2 4 7 8 8 8 10 11 11 10 8 5 6 6 6 5 5
5 7 12 12 8 4 2 4 6 11 19 24 23 23 24 25 26 27 27 27 26 24 21 20 20 22 21 19 18 18 17 15 13 11 8 6 5 5 5 6 6 6 6 5 5 4 3 3 4 5 6 8 10 10 9 8 7 8 8 7 6 5 5
2 10 19 17 10 8 10 12 11 13 20 24 23 23 24 23 22 22 22 22 22 22 21 19 19 20 20 18 17 17 17 15 12 10 7 4 3 3 2 3 4 3 4 5 6 6 6 6 5 5 6 8 9 9 9 10 10 10 9 7 7 7 7
4 11 16 15 15 17 17 16 15 17 20 22 23 23 23 22 21 22 23 24 23 21 20 20 20 21 21 19 18 18 17 15 12 10 8 6 5 4 2 1 1 1 2 4 6 7 7 7 6 5 4 5 7 10 11 12 12 12 10 8 8 9 10
11 17 18 19 24 26 22 20 20 21 22 22 21 20 18 17 17 18 20 21 20 19 18 17 17 18 18 18 17 16 15 13 12 10 8 7 6 6 5 3 2 1 1 3 5 6 6 6 5 4 3 5 8 10 12 14 14 12 10 9 9 9 10

ECMWFFLT2_850_spd_015.txt.gz
Wind_Speed
21 20 20 22 20 13 9 13 16 16 15 15 13 13 13 14 13 11 11 11 11 13 13 11 12 14 15 16 18 21 23 21 14 13 17 22 24 28 33 35 35 36 37 39 39 39 38 39 39 40 40 40 41 38 37 38 39 39 39 38 37 35 33
21 21 20 23 23 18 10 12 17 15 16 17 13 11 12 13 13 11 13 16 14 12 10 10 16 18 15 16 18 20 21 18 15 16 18 22 25 29 33 35 33 34 37 38 40 40 39 40 40 41 42 42 42 42 39 39 40 41 40 40 39 37 35
19 20 18 18 22 26 20 13 14 14 14 15 12 11 12 13 13 10 15 19 15 12 10 10 16 20 18 19 20 19 18 17 18 19 17 17 21 26 30 32 32 32 35 37 39 39 38 39 39 40 41 41 41 42 41 40 40 41 40 39 38 38 37
15 14 14 13 15 22 24 19 14 13 12 13 13 13 11 12 13 11 14 16 12 11 12 12 16 19 19 20 20 18 17 20 19 19 18 18 21 25 27 28 32 34 35 38 39 39 38 38 38 39 39 39 39 40 41 40 38 39 40 39 37 38 38
14 11 13 16 15 16 18 18 16 14 11 12 14 15 13 12 12 10 11 12 10 10 12 14 16 15 15 17 18 16 18 22 19 16 19 20 21 24 25 26 30 34 35 37 38 39 38 37 38 38 38 38 38 37 39 40 38 37 39 39 38 38 38
13 14 16 19 19 17 16 16 17 16 13 12 14 14 13 14 13 11 10 11 11 9 11 13 14 12 13 15 17 16 18 19 15 14 19 21 21 24 25 25 27 30 33 35 36 37 37 37 38 39 38 38 37 37 37 37 37 36 36 37 38 38 39
13 17 19 20 21 22 19 16 18 18 16 13 13 12 13 14 14 14 13 12 11 9 10 9 10 12 15 17 15 12 15 16 14 18 19 20 25 24 24 23 24 27 30 32 33 36 37 38 39 39 39 38 38 37 36 35 37 37 35 35 36 38 40
11 15 17 18 21 21 18 16 18 18 18 18 15 11 12 13 15 16 13 13 12 10 10 8 9 12 16 18 17 15 17 20 19 22 18 13 20 20 22 22 22 25 28 29 32 35 37 39 38 38 39 39 37 37 36 35 36 37 35 33 33 35 40
11 12 13 15 18 17 14 15 19 19 23 27 21 13 12 14 17 19 14 12 12 11 12 12 11 13 14 16 20 22 23 21 21 23 14 8 11 15 19 20 21 24 26 29 32 35 38 39 38 38 39 39 37 36 36 35 34 34 35 33 32 33 37
12 12 11 11 13 13 12 16 22 23 27 31 22 14 14 14 14 18 16 13 12 12 14 17 17 16 14 13 17 20 21 22 24 21 10 10 13 16 19 20 21 23 25 28 31 34 37 38 36 37 38 39 38 37 36 35 33 32 33 33 32 32 33
12 12 11 11 12 13 15 19 24 25 26 27 20 14 16 14 12 15 15 15 17 16 15 18 18 16 14 12 13 15 17 19 21 14 9 12 15 16 18 20 21 23 25 27 30 32 34 36 35 35 36 37 39 38 37 35 33 31 32 32 33 33 32
17 15 14 15 15 16 19 21 23 24 25 26 23 19 19 16 13 14 15 16 19 19 18 19 18 17 16 14 15 18 19 18 16 12 12 15 16 18 20 21 22 24 25 26 29 31 32 33 33 33 33 34 37 38 37 35 33 31 30 31 33 33 31
22 22 20 18 17 18 21 21 21 23 24 27 26 24 23 21 16 15 16 18 21 21 23 23 19 16 15 16 19 21 21 20 20 18 17 17 17 18 20 22 23 24 26 26 29 31 31 32 33 32 32 33 33 34 35 35 34 32 30 31 32 32 31
20 23 23 22 21 19 20 21 21 22 24 26 27 25 26 26 23 21 20 20 20 19 22 24 24 24 21 18 20 22 23 24 23 21 20 19 18 16 16 19 23 25 26 28 29 30 31 32 33 32 32 32 32 32 33 34 34 33 31 31 32 32 31
15 20 21 23 24 22 22 23 23 25 25 25 25 25 25 25 24 25 25 22 18 16 18 20 23 29 29 22 20 20 21 22 21 20 20 19 17 16 16 17 21 24 26 28 29 32 33 34 34 33 32 32 32 31 31 32 33 32 31 30 31 31 30
13 16 19 22 23 23 24 24 25 26 24 22 21 21 22 22 22 23 23 20 16 14 16 17 17 22 26 24 23 24 23 21 19 18 20 20 18 18 18 17 21 24 26 29 32 34 34 34 34 34 33 32 31 30 30 30 31 32 31 30 31 32 31
12 17 20 21 20 18 18 20 23 26 24 23 23 21 22 23 22 19 17 16 15 14 16 19 18 18 20 22 26 29 28 25 24 23 22 23 24 22 17 15 19 24 27 30 34 34 34 34 35 34 32 31 30 29 28 28 29 30 30 29 31 33 32
11 16 19 17 16 14 14 15 20 25 25 26 27 24 23 24 21 18 16 16 17 17 18 21 21 20 20 24 29 31 29 29 31 30 26 26 28 23 15 14 18 21 25 27 29 30 31 31 31 31 29 29 29 27 26 26 27 29 30 29 30 32 31
9 11 13 13 14 13 13 13 17 22 25 28 29 27 26 26 25 24 23 21 19 18 18 21 24 24 25 29 31 31 30 31 33 31 27 27 28 23 18 19 23 23 24 25 25 28 29 28 28 29 29 28 28 27 25 26 26 27 29 27 27 28 27
8 8 10 12 11 11 12 13 14 17 20 24 26 25 25 25 25 24 23 22 20 19 19 22 25 27 29 30 32 33 31 32 33 31 29 28 25 20 19 22 25 26 25 24 25 27 28 27 28 29 29 29 28 27 26 26 25 26 27 27 25 25 24
8 9 10 10 10 13 13 9 7 8 9 12 12 12 15 18 19 22 22 21 21 21 21 21 22 24 23 21 26 33 34 33 33 32 32 31 27 23 22 22 24 26 24 22 24 26 27 28 29 28 28 28 27 27 27 27 27 26 26 27 25 24 24
8 9 10 10 12 13 8 0 5 5 6 7 7 7 10 13 16 18 20 21 22 20 18 20 21 21 17 12 15 24 28 29 29 28 29 30 27 23 21 19 21 23 23 22 24 26 27 28 28 28 28 28 28 28 28 28 28 26 26 26 26 25 25
9 10 10 10 11 8 4 4 3 6 7 7 6 6 11 11 15 20 19 20 22 20 18 20 19 16 12 10 12 18 24 26 26 27 28 27 24 19 18 18 21 22 21 22 25 26 27 28 28 28 29 28 28 28 27 27 27 26 26 26 26 25 24
11 11 10 9 8 5 6 6 2 2 5 4 1 8 9 7 12 18 18 18 22 21 18 18 15 11 10 11 13 18 24 23 21 20 21 21 21 19 18 18 20 20 21 23 26 26 28 31 31 30 29 29 29 29 27 26 25 25 25 25 25 25 24
12 12 11 9 7 4 6 5 2 2 2 4 7 7 3 7 12 16 17 16 17 17 18 17 16 15 15 16 15 14 11 11 13 12 12 14 15 16 16 18 19 20 22 24 24 25 27 30 30 30 30 30 30 29 27 25 25 25 25 25 25 25 24
12 11 11 10 7 4 7 5 4 4 6 7 6 2 4 7 12 15 16 15 12 13 19 22 20 20 20 19 17 11 4 6 8 8 9 11 12 13 16 19 21 21 21 22 22 23 24 26 26 28 31 33 32 30 27 26 26 25 27 28 27 26 25
10 10 11 11 8 6 7 5 5 6 6 4 3 4 6 7 10 13 13 13 10 10 16 18 18 21 19 16 16 13 8 7 7 7 8 10 12 15 18 20 19 20 21 22 23 23 25 26 26 27 32 35 34 31 29 28 27 28 29 30 29 27 25
10 12 11 6 3 7 9 3 1 2 1 5 5 5 6 4 6 8 10 10 9 8 9 10 13 15 14 13 13 11 9 9 8 9 10 11 12 13 16 18 18 20 23 24 24 24 25 26 27 29 34 38 36 33 31 30 30 30 30 30 27 24 23
5 4 2 3 5 8 9 3 2 1 2 2 3 4 3 3 3 4 6 7 7 5 3 5 7 8 9 10 10 10 11 11 11 12 12 12 12 13 15 18 20 23 25 26 26 26 26 27 29 32 36 38 36 33 32 31 30 30 29 27 24 22 21
3 5 6 7 7 9 12 8 2 2 5 4 4 4 2 2 5 6 4 3 3 2 4 7 9 9 9 9 9 12 14 15 16 16 15 14 15 16 18 20 22 24 26 28 29 30 29 29 30 31 32 31 29 29 29 28 27 27 26 24 23 22 21
3 2 4 6 7 9 13 12 7 8 9 9 8 9 8 7 9 8 6 5 4 5 7 9 11 12 13 12 12 14 16 18 20 20 20 19 19 19 20 22 24 27 29 30 31 31 30 29 28 28 27 25 23 25 26 26 25 24 23 23 23 22 20
3 4 6 8 11 13 14 13 11 11 13 14 13 12 12 13 13 12 11 10 9 10 11 12 13 15 15 15 15 16 17 18 19 21 21 21 20 21 21 22 23 26 27 28 28 28 27 26 25 24 23 22 22 25 26 25 24 23 22 21 21 20 18
4 8 9 10 11 12 14 15 14 14 16 19 18 17 16 16 17 18 18 17 16 17 16 15 16 18 18 18 19 19 18 18 18 19 20 20 21 21 21 21 23 24 25 26 27 27 25 23 23 24 24 24 24 25 24 23 22 21 21 20 19 18 17
2 4 8 8 6 7 11 14 16 16 19 22 22 22 21 21 21 22 21 21 22 23 23 21 21 22 22 22 22 22 21 20 19 19 19 19 20 20 20 21 23 24 25 25 26 26 24 22 22 22 22 21 20 19 18 19 20 20 20 19 16 15 15
2 3 5 10 9 9 13 14 15 17 20 23 24 24 24 25 25 25 25 25 25 26 27 27 26 25 25 24 24 23 22 20 19 20 19 19 19 18 18 19 20 20 20 19 19 20 20 18 18 18 17 17 16 15 15 16 18 19 19 18 16 16 16
5 6 3 12 13 14 15 15 17 19 23 27 29 27 26 27 27 27 28 28 26 25 26 28 28 27 26 25 24 23 22 21 21 21 21 21 20 19 18 19 19 18 17 16 15 16 15 14 14 14 15 15 13 12 13 14 15 16 16 16 16 16 16
1 3 6 14 17 16 16 17 20 21 21 24 25 23 22 23 23 23 25 25 24 23 22 23 25 26 26 26 24 22 21 21 20 21 21 22 21 20 20 19 17 16 15 14 14 13 12 13 13 12 13 13 12 11 12 12 13 16 17 16 16 16 17

ECMWFFLT2_850_spd_021.txt.gz
Wind_Speed
15 12 12 14 12 6 4 8 11 8 7 5 3 4 4 4 5 4 4 4 3 4 5 8 13 16 15 13 16 17 19 29 37 36 35 37 38 39 40 40 42 41 40 43 48 49 49 50 49 49 49 48 48 47 46 45 44 43 43 43 42 42 42
19 18 13 15 16 10 4 6 7 2 2 4 3 3 4 4 6 4 5 7 5 5 5 6 12 15 16 15 14 14 15 22 30 34 38 39 38 40 42 43 44 43 41 41 46 48 49 49 50 49 49 48 47 47 46 45 44 44 44 43 43 43 42
17 18 13 11 14 15 9 5 3 4 4 5 4 4 4 5 6 4 5 8 6 6 4 6 12 13 14 15 15 16 15 15 23 32 39 42 41 41 42 44 45 45 44 44 45 47 48 48 48 48 48 48 48 47 46 45 45 45 44 44 44 43 43
14 12 10 8 8 11 11 8 5 5 5 5 6 5 3 4 5 4 5 7 5 5 5 7 11 12 14 14 14 16 16 16 24 31 37 41 43 43 44 45 45 46 46 47 48 48 48 47 47 47 47 48 48 47 46 45 44 44 44 44 44 44 44
11 10 9 9 9 9 10 9 9 8 4 4 6 7 6 5 4 4 5 5 5 5 5 8 10 12 15 16 15 15 15 20 30 35 38 41 43 45 47 46 47 47 47 48 49 49 48 46 46 46 47 48 48 48 47 46 45 44 45 45 45 45 44
8 8 10 14 14 12 11 9 11 10 6 4 6 7 7 7 6 5 5 4 6 5 5 8 10 11 14 15 14 13 13 21 30 36 42 46 47 48 49 48 48 47 46 46 48 49 47 45 46 46 47 49 49 49 48 47 46 46 46 47 46 46 45
8 8 12 19 18 16 13 11 11 10 7 6 5 5 5 6 6 6 5 5 6 6 6 7 7 9 13 15 14 11 15 24 29 31 39 47 49 50 50 49 48 46 45 45 45 47 47 46 46 46 47 49 50 50 49 48 48 47 47 47 47 46 45
9 11 9 17 20 17 12 11 11 10 9 8 6 5 3 4 6 5 5 6 7 5 6 7 7 7 9 15 20 17 17 25 29 29 35 42 44 46 47 46 45 44 43 42 42 44 47 47 46 46 47 48 49 49 49 49 49 48 47 47 47 46 46
7 9 7 10 17 15 9 8 11 13 14 12 9 7 3 4 8 8 5 5 6 6 6 7 7 6 6 9 19 22 18 22 29 30 33 43 46 45 44 42 41 40 38 40 42 43 45 47 47 47 47 47 47 48 49 48 48 48 47 46 46 46 47
9 9 7 5 9 11 8 8 12 16 18 16 11 6 5 6 8 10 8 6 5 6 11 12 9 6 6 4 12 21 21 24 32 30 32 45 49 44 40 38 37 37 37 41 44 44 44 46 47 47 47 46 46 47 47 47 47 47 47 46 46 46 47
9 8 7 4 4 8 12 13 15 15 16 18 12 6 7 6 4 6 9 9 8 6 8 13 10 7 8 5 6 14 15 19 26 23 24 41 47 41 40 40 38 39 41 43 43 43 44 45 46 47 46 46 46 46 46 46 46 45 46 46 46 46 47
13 9 7 8 9 9 13 17 18 15 15 16 14 11 11 7 4 6 8 7 10 11 10 11 10 7 9 7 6 10 11 16 23 21 22 36 42 40 42 43 43 44 43 42 42 43 44 45 46 46 46 46 46 46 46 45 45 45 45 45 46 46 47
19 15 12 12 13 12 12 16 18 17 17 17 15 14 13 9 6 9 8 5 7 10 11 11 8 7 8 8 12 16 13 15 21 22 27 37 39 39 42 43 44 44 42 41 42 42 43 44 46 46 45 45 45 45 46 46 46 45 44 45 46 46 47
18 19 18 17 16 14 12 13 16 18 19 20 18 14 11 11 10 10 10 10 9 8 8 8 8 9 7 5 10 14 13 20 24 22 25 31 33 35 39 41 41 41 40 38 37 37 39 41 44 45 45 45 46 47 46 46 46 45 44 45 46 47 48
11 17 20 20 19 17 14 12 13 17 19 20 19 16 12 10 9 9 10 10 10 9 7 7 7 7 5 4 5 5 7 21 31 27 24 28 31 32 35 37 39 40 41 38 34 33 36 38 40 43 45 45 47 48 47 47 47 45 45 46 47 48 49
5 10 17 21 20 17 17 18 16 16 16 14 13 14 14 12 10 8 7 7 8 8 7 7 6 5 6 6 6 6 7 14 25 28 28 32 35 36 36 37 40 42 42 39 35 34 36 37 39 40 43 46 48 48 48 48 47 46 46 47 49 50 50
3 4 7 13 15 14 16 18 16 11 9 11 11 11 13 16 13 8 6 7 7 5 6 7 8 7 6 7 7 8 10 14 21 26 27 30 34 39 41 40 42 44 42 40 39 39 39 40 40 40 43 47 49 50 50 49 47 47 47 48 50 51 51
3 4 5 6 8 11 11 10 11 11 8 9 10 8 9 12 11 10 9 7 5 4 6 8 8 9 12 13 12 13 14 15 20 24 25 26 27 32 39 39 38 39 40 41 40 40 40 39 40 41 42 46 49 50 50 49 48 48 48 48 50 52 52
3 4 4 6 7 8 6 5 9 11 10 8 8 9 9 7 6 10 11 8 7 7 6 7 8 8 14 16 13 14 18 19 19 21 23 26 25 24 28 34 38 38 40 43 43 41 38 37 40 42 42 44 47 49 49 49 49 50 50 49 50 52 52
4 3 4 6 4 4 5 3 4 3 3 4 4 5 6 5 4 1 1 1 1 1 2 2 3 6 7 9 9 9 12 13 14 16 19 22 23 19 18 25 35 38 39 42 43 40 36 36 40 42 41 42 46 48 48 50 50 50 50 51 51 51 52
5 5 4 4 3 4 6 5 1 2 2 1 2 1 3 5 7 7 5 6 7 7 7 9 13 15 12 5 8 11 13 13 11 11 13 14 15 15 15 19 27 33 36 38 39 38 37 38 40 40 39 41 44 46 46 48 50 50 51 52 52 51 52
2 4 4 4 4 5 5 2 2 3 3 4 7 4 2 5 6 8 7 7 8 8 7 10 13 13 9 4 7 14 17 20 22 21 19 18 19 20 20 20 22 28 35 37 38 38 39 40 40 38 38 40 43 44 46 47 49 50 50 52 54 52 51
1 2 5 5 5 4 3 2 1 4 7 6 6 5 4 5 4 8 10 9 9 8 7 9 11 10 6 3 8 19 22 20 24 29 31 25 21 21 20 18 18 21 30 38 40 40 40 41 40 37 37 40 43 44 46 48 49 50 50 52 55 54 52
2 2 3 3 2 2 1 1 1 7 10 8 4 1 3 4 5 10 12 11 10 10 10 11 9 7 5 4 11 21 21 19 21 22 32 31 21 18 20 19 15 14 24 36 42 42 39 38 40 38 37 40 42 43 46 49 49 51 52 51 53 55 53
2 3 1 2 1 1 2 3 5 5 8 7 3 5 5 2 7 14 17 14 13 15 15 12 8 7 9 9 13 18 15 12 15 13 17 22 20 18 19 20 16 13 19 32 40 41 37 37 40 40 39 42 43 41 44 49 52 53 53 51 52 52 52
2 3 2 2 2 1 0 4 10 10 5 3 3 3 4 7 11 17 20 18 17 18 17 14 12 11 15 14 13 16 16 12 9 8 9 9 9 11 12 17 18 14 17 29 38 39 38 41 44 43 41 43 44 42 45 49 51 52 52 51 51 51 51
2 2 3 2 1 3 1 2 6 6 2 4 3 2 10 14 16 17 20 20 19 18 17 17 17 16 18 19 16 14 14 14 12 9 8 8 8 8 8 7 11 11 17 32 42 43 43 44 45 44 44 46 44 44 48 49 49 50 50 49 50 50 50
3 2 1 1 4 11 7 3 2 1 2 2 4 8 11 14 17 18 21 22 21 19 18 19 20 19 20 20 17 15 13 12 13 13 10 7 5 8 11 8 4 6 13 24 33 38 41 45 47 44 44 47 47 46 47 48 48 48 48 48 49 49 50
1 3 4 5 14 25 15 9 15 10 10 13 16 17 16 17 19 21 22 22 22 21 20 20 21 21 20 19 17 17 15 13 12 12 11 9 7 6 6 6 5 5 9 15 19 22 24 30 41 48 45 43 46 48 47 47 48 48 47 49 50 49 48
2 4 4 5 15 29 25 4 19 18 17 18 22 24 23 22 25 26 25 25 25 24 22 22 23 20 17 19 20 19 16 14 14 12 9 7 6 4 1 2 4 6 9 15 20 21 17 17 22 36 46 45 44 47 47 48 48 48 49 50 49 48 46
4 3 4 8 12 27 28 8 14 22 25 24 26 28 27 26 29 30 28 28 28 28 27 27 27 24 21 21 24 23 21 18 17 15 12 8 5 4 4 3 6 10 11 14 17 19 21 21 20 17 31 43 47 48 48 49 49 50 51 51 48 48 47
3 2 3 8 14 23 24 22 16 18 26 29 27 28 29 29 30 30 29 29 29 29 28 26 27 29 28 27 27 27 26 24 21 17 13 9 4 3 5 6 9 12 13 13 13 13 18 23 20 12 10 23 38 44 46 49 50 50 51 51 50 48 46
4 3 2 7 12 15 20 28 22 15 22 29 29 28 30 31 32 31 31 31 31 30 28 26 27 29 29 28 28 28 28 28 25 20 16 12 6 2 3 4 5 7 6 5 9 12 14 19 25 19 7 8 23 34 39 45 49 48 47 47 45 42 38
2 1 3 5 4 6 10 18 20 16 18 26 30 30 30 30 30 31 32 32 31 31 29 28 29 30 29 28 29 30 29 29 27 24 21 19 15 11 8 7 7 5 1 4 8 13 15 15 22 25 14 12 22 33 36 40 44 44 39 36 36 36 36
5 7 9 6 1 2 8 15 17 15 16 23 28 29 30 29 28 29 31 32 31 31 30 29 29 29 29 29 30 32 31 29 28 27 25 23 22 21 17 13 11 10 4 3 7 11 15 15 18 23 19 18 23 32 33 32 32 29 25 27 33 37 38
9 13 13 6 2 4 7 13 17 16 16 22 25 25 27 29 28 28 29 30 29 29 29 29 28 27 27 27 29 31 31 30 29 29 28 24 20 22 24 20 17 16 11 1 6 10 14 14 15 18 19 16 18 23 23 21 20 20 22 28 36 38 38
12 16 11 7 9 9 9 12 16 16 16 19 22 22 24 25 24 24 26 27 26 26 26 27 27 26 26 25 25 26 27 28 28 29 30 28 23 22 24 22 21 21 18 8 6 11 14 14 14 16 17 16 17 20 21 23 27 29 31 35 39 38 37

ECMWFFLT2_850_spd_024.txt.gz
Wind_Speed
12 13 9 10 10 6 5 8 9 7 8 8 6 5 3 2 3 5 4 4 4 3 5 6 11 16 16 17 19 21 26 33 33 32 37 41 44 47 50 52 53 55 56 56 56 57 57 57 57 58 58 58 58 57 55 54 52 50 49 49 47 45 44
15 19 14 10 11 9 5 7 8 5 6 7 5 2 3 5 6 4 4 6 5 4 6 5 7 12 14 14 14 16 22 29 29 31 38 41 44 47 50 53 55 55 56 56 56 57 57 58 58 59 59 59 58 57 55 54 53 52 50 48 47 45 44
13 14 13 9 10 11 8 6 7 6 5 6 5 4 5 7 6 5 5 7 5 5 5 5 9 12 14 14 14 15 18 21 26 32 37 41 43 45 48 52 54 55 56 56 57 57 57 58 58 58 58 58 58 56 55 54 53 52 50 47 46 46 44
10 7 8 8 9 10 8 5 6 5 5 7 6 4 4 5 6 5 4 4 5 6 5 7 11 14 16 16 15 15 16 21 29 34 37 40 42 42 46 50 53 55 56 57 57 57 57 57 57 57 57 57 57 56 55 54 53 52 50 48 46 45 45
8 6 6 10 10 9 8 7 7 6 3 3 5 5 4 5 4 4 4 5 6 6 5 8 12 14 16 17 17 16 17 24 34 37 39 42 43 45 48 50 52 55 57 57 57 57 56 56 56 56 56 56 57 56 56 55 53 52 52 50 47 45 45
7 6 6 11 14 12 10 8 9 9 5 3 4 7 4 3 5 5 5 6 7 6 5 8 10 12 13 16 17 15 17 27 36 39 42 44 45 47 49 50 52 54 55 55 55 55 54 54 55 55 56 56 56 56 56 55 54 53 53 51 49 46 45
8 9 7 10 16 17 14 11 9 8 6 5 5 6 3 3 5 4 4 6 8 6 6 7 8 9 11 17 19 16 20 30 35 38 42 44 46 49 50 51 53 53 54 54 53 53 52 53 54 54 55 56 56 57 57 56 55 54 53 51 49 48 46
8 11 8 6 10 14 13 12 10 9 9 8 6 5 4 3 5 4 4 7 7 5 5 7 7 7 9 15 20 21 23 28 31 36 40 43 46 50 51 52 53 53 53 51 50 50 51 52 53 53 54 55 56 56 56 56 56 54 52 51 50 49 48
7 9 9 7 7 9 9 10 12 14 13 11 6 4 4 4 6 7 5 8 6 5 5 8 9 7 7 10 18 22 21 22 27 33 38 42 46 49 49 51 52 50 47 47 48 51 52 53 52 52 53 54 55 55 56 56 55 53 52 51 51 51 50
10 9 9 8 6 7 7 9 14 17 17 15 9 4 5 6 5 5 5 7 5 6 5 10 14 13 8 8 14 20 24 27 30 33 37 42 44 46 48 50 48 44 43 45 49 51 51 52 52 51 52 53 54 55 55 54 53 52 52 51 51 51 51
12 11 9 6 6 8 10 10 13 16 18 18 12 6 7 6 4 5 7 5 4 7 7 11 15 16 12 8 9 14 20 25 29 34 39 42 44 46 47 47 45 42 42 45 48 50 51 51 51 51 52 53 54 54 54 53 52 52 52 51 51 52 52
17 15 13 11 9 10 14 15 14 16 18 18 15 11 8 8 6 9 9 6 6 8 8 9 12 13 10 6 7 12 18 21 24 31 37 41 43 45 44 44 43 43 44 46 47 48 50 50 51 51 51 52 53 54 54 53 52 52 52 52 52 52 52
19 19 17 18 14 8 11 15 16 17 20 21 20 16 10 11 9 12 8 9 9 8 8 9 10 9 8 7 10 15 20 23 25 26 31 35 37 37 38 41 43 44 46 47 47 48 48 48 50 51 51 51 52 53 53 53 52 53 53 53 54 53 53
16 20 19 19 18 12 9 12 15 16 18 22 22 19 14 13 12 10 8 10 10 8 8 10 10 10 10 10 10 12 16 22 26 26 27 29 32 34 37 41 43 45 46 46 47 48 47 47 48 49 50 51 52 53 53 53 54 54 54 54 54 54 54
9 17 21 19 19 17 12 10 13 15 16 18 19 18 15 12 11 8 8 10 9 6 6 8 9 9 8 6 5 9 15 19 23 27 29 31 34 38 42 45 47 47 47 46 46 46 46 45 46 47 48 50 51 53 53 54 54 54 54 55 55 56 55
6 10 19 22 20 17 14 12 13 14 14 14 14 13 12 10 9 8 7 8 7 6 7 8 9 8 9 7 6 9 13 15 16 22 27 31 36 41 44 46 46 46 46 46 46 46 46 44 44 45 47 49 51 53 54 55 55 55 55 56 56 56 55
6 10 14 20 18 13 13 14 12 11 9 10 11 11 12 12 10 8 8 8 7 7 8 8 9 7 7 9 9 11 15 17 17 20 26 29 33 37 41 43 44 44 46 46 47 47 45 43 43 45 47 50 52 53 55 55 55 55 55 56 56 56 54
6 13 13 14 16 12 11 8 10 13 11 10 9 7 9 11 8 6 7 8 8 8 9 9 10 8 8 14 16 14 16 22 24 24 25 27 30 33 36 39 42 44 45 46 46 46 44 42 42 44 47 50 52 53 54 55 54 55 56 56 56 56 55
6 10 9 11 13 11 8 3 7 13 13 12 9 2 2 5 7 5 3 2 5 5 5 8 10 8 7 5 2 3 1 13 24 27 25 24 26 31 35 37 40 43 44 44 44 44 45 44 44 46 48 50 51 53 53 53 53 54 55 56 56 56 56
5 5 4 9 8 5 3 1 3 6 8 10 9 5 5 4 3 3 5 5 5 3 1 5 10 15 18 16 17 17 10 3 10 19 26 28 27 30 33 34 36 38 42 44 44 45 47 47 47 48 49 50 52 53 53 53 53 54 54 55 56 56 57
3 3 5 5 4 2 2 1 1 3 5 9 9 5 3 6 5 2 7 8 6 5 4 1 6 13 16 13 15 17 16 11 5 8 19 28 33 35 36 37 36 36 40 44 46 46 47 48 49 50 50 51 53 53 53 52 52 53 54 55 56 56 57
1 3 5 3 3 4 3 2 2 4 6 8 10 8 1 6 6 2 5 7 5 6 5 3 2 6 8 4 6 15 20 17 10 5 8 17 26 30 33 36 38 38 42 47 48 49 48 48 50 49 49 51 53 53 52 52 52 53 54 56 57 57 58
2 3 5 4 4 3 4 8 6 1 6 9 11 8 1 5 6 4 4 7 6 6 7 6 4 6 5 1 5 10 16 17 14 9 2 7 14 17 20 25 30 33 37 41 45 49 49 48 48 48 47 48 49 50 49 49 51 53 55 57 57 58 58
4 4 5 4 3 2 10 13 14 14 5 8 11 4 3 5 5 4 7 8 6 6 9 9 8 5 4 4 4 9 12 13 15 12 8 4 4 8 11 18 24 28 30 30 34 42 47 49 49 49 47 46 46 47 47 48 51 53 55 56 57 57 58
5 5 5 3 2 3 12 15 17 20 11 5 7 4 6 3 1 7 11 10 8 10 11 10 7 4 4 4 4 9 10 10 12 13 11 9 7 4 3 8 15 21 25 27 28 31 36 42 45 46 47 47 46 46 46 48 51 53 54 55 55 56 57
3 4 4 4 1 4 17 25 24 16 5 4 5 4 5 6 8 12 15 13 13 18 19 16 13 10 8 8 9 11 11 10 11 11 9 8 7 6 4 2 7 11 15 21 27 29 31 35 40 42 45 49 50 49 49 50 51 52 52 54 56 58 58
2 3 3 2 2 7 22 26 17 11 7 3 3 7 9 12 15 17 17 16 16 20 22 20 17 14 12 12 12 12 12 11 11 10 8 7 6 4 4 2 3 6 8 13 21 30 33 35 37 38 40 43 46 47 48 49 50 52 54 55 56 57 57
1 1 2 1 3 10 19 15 5 5 11 7 6 13 11 13 17 20 19 17 17 20 21 20 18 17 15 14 13 12 13 13 12 10 9 7 6 4 4 3 1 2 4 6 10 18 26 30 32 33 34 37 40 41 41 42 42 44 49 54 55 55 55
1 2 3 4 5 10 17 15 10 12 17 15 14 18 18 16 16 19 21 18 17 20 20 20 20 19 17 15 14 14 15 14 13 12 11 10 8 7 5 3 2 2 2 3 4 7 13 21 27 29 31 34 37 39 40 40 38 36 37 44 50 53 54
1 2 5 7 7 11 18 21 21 21 23 21 16 17 22 22 21 23 24 22 21 21 21 22 22 20 17 16 15 15 15 14 13 13 12 12 11 11 9 8 6 5 3 4 5 4 7 14 21 24 28 30 32 34 36 36 37 35 31 34 42 49 52
1 2 2 4 7 9 15 22 25 26 25 22 19 18 19 22 25 27 26 25 25 24 23 25 24 21 19 18 17 16 15 15 16 15 14 14 13 13 13 12 11 9 7 6 6 6 7 10 15 19 24 27 30 33 35 34 34 31 24 24 34 42 45
2 2 3 9 9 8 17 23 23 24 24 21 19 18 19 22 26 26 25 25 25 24 24 25 24 23 21 20 19 18 17 17 17 17 16 15 14 13 13 12 11 10 10 8 7 8 8 9 13 17 22 27 30 33 35 35 36 34 28 25 30 33 34
3 1 5 10 9 8 16 22 22 22 21 19 17 18 20 23 25 26 26 26 24 25 25 23 22 24 24 22 21 21 20 20 20 20 19 18 16 15 13 11 9 8 8 6 6 7 7 9 13 16 19 23 27 30 31 33 36 37 34 32 36 36 34
0 0 4 7 5 3 9 15 18 19 19 18 17 18 19 22 24 25 27 27 27 26 25 23 22 25 26 24 23 23 23 24 23 23 22 21 18 16 14 12 9 6 5 5 5 4 5 7 11 14 16 19 21 23 27 30 34 35 36 39 45 48 45
1 2 5 8 4 2 5 10 14 16 16 17 18 18 18 19 23 25 26 27 28 27 26 25 24 26 26 24 24 25 26 25 25 24 24 24 22 20 18 15 11 8 7 6 5 3 2 5 8 12 14 16 18 19 21 24 28 34 39 41 42 45 47
3 4 6 7 4 0 4 9 14 16 16 16 16 16 15 16 21 25 26 26 26 25 24 24 23 24 25 24 24 25 25 25 24 24 24 25 24 23 21 19 17 14 11 9 9 9 8 5 1 4 6 9 12 16 20 26 30 35 41 42 40 41 40
4 7 8 7 4 5 6 10 14 16 14 12 13 14 14 13 18 23 24 24 23 22 21 21 20 19 20 21 22 22 22 23 23 22 23 24 24 24 23 22 21 18 15 11 9 10 10 10 10 11 11 10 11 14 20 28 31 30 29 28 27 28 27

ECMWFFLT2_850_spd_030.txt.gz
Wind_Speed
11 14 11 10 9 5 2 5 7 6 5 6 4 4 2 1 2 4 2 3 5 4 5 6 6 8 10 14 17 19 26 33 32 28 29 35 41 44 47 50 53 54 53 52 53 54 54 54 54 55 55 55 55 55 54 53 52 52 52 51 51 50 49
11 14 14 10 11 10 6 6 7 3 5 4 4 2 2 2 4 5 2 5 5 3 5 5 5 8 9 11 13 14 21 26 26 27 31 36 40 45 49 52 53 53 53 53 54 55 55 55 56 57 57 56 56 55 54 53 52 51 51 51 51 50 50
7 8 10 6 8 10 6 5 7 5 3 4 3 3 4 4 4 5 3 5 5 6 5 3 5 9 10 11 12 13 16 18 22 28 32 35 39 42 45 47 49 50 52 54 55 55 56 55 56 56 57 56 56 55 55 54 53 50 49 49 50 50 50
6 5 6 6 6 7 3 2 5 4 3 4 4 4 4 4 4 3 4 5 5 7 7 6 8 11 11 11 11 11 14 18 25 30 33 36 39 41 43 46 49 51 53 55 56 57 56 56 56 56 55 55 55 56 55 55 54 52 51 51 51 50 50
5 4 5 9 9 8 5 4 5 4 2 2 3 2 3 4 4 3 3 6 5 5 6 10 11 11 11 12 12 11 14 22 30 34 37 39 41 42 44 46 49 52 54 54 56 57 56 55 55 54 53 54 55 55 55 56 55 54 54 53 52 52 51
3 4 8 13 15 12 10 7 7 7 4 4 4 4 3 3 5 5 4 6 7 4 5 8 10 10 10 12 13 11 14 23 30 35 40 43 43 44 46 48 50 51 52 53 54 55 55 53 52 52 52 52 53 54 55 56 56 55 55 55 54 53 52
4 6 8 10 13 13 12 10 9 8 6 6 6 7 4 3 3 2 3 5 9 5 7 9 9 10 11 13 13 12 16 25 30 34 40 43 43 45 46 46 46 47 50 52 52 52 53 52 52 52 51 52 53 54 55 56 56 56 56 55 54 53 53
3 5 6 5 4 6 8 8 8 8 8 8 8 6 4 4 4 2 2 7 8 5 5 8 8 8 9 11 13 14 17 24 29 33 37 38 39 41 40 38 39 42 45 48 48 49 51 51 51 51 52 53 53 54 55 55 56 57 57 56 55 54 54
4 4 5 5 4 1 4 6 7 9 11 11 7 3 4 4 7 8 6 8 7 5 3 4 6 7 6 9 13 15 17 21 24 26 31 35 36 36 36 34 35 37 40 44 47 48 50 51 51 51 52 53 53 54 54 55 56 56 56 56 55 55 55
7 5 5 5 2 3 3 3 8 12 13 14 10 4 4 6 7 9 7 7 6 6 4 5 7 6 7 10 11 12 16 21 21 21 26 31 32 34 36 35 35 37 40 44 47 49 50 52 52 52 53 53 54 54 55 55 56 56 56 56 56 55 55
4 2 5 4 1 3 5 4 6 11 13 15 12 8 8 6 5 7 8 7 5 7 5 6 7 6 8 10 9 9 16 21 22 21 23 24 26 30 34 35 37 37 39 43 47 49 50 51 52 53 53 54 54 54 55 55 55 55 55 55 55 55 55
2 3 9 10 5 4 6 8 9 10 12 15 15 14 9 8 6 10 10 8 7 8 7 8 9 8 7 9 9 11 15 18 19 18 18 19 22 26 29 32 35 37 39 43 46 48 49 50 51 52 53 53 54 54 55 55 54 54 54 54 55 55 55
7 6 10 11 7 5 7 10 12 11 12 16 19 17 10 10 10 14 10 10 10 8 8 9 10 9 9 11 12 12 12 13 15 17 18 20 22 24 27 31 34 37 39 42 45 47 49 49 50 51 51 52 53 53 54 54 54 54 54 54 55 55 55
9 9 9 8 6 5 7 10 11 12 14 16 18 16 12 12 13 12 8 10 11 9 8 9 11 11 10 9 10 10 11 13 14 16 20 22 22 24 26 30 33 36 38 40 44 47 48 49 49 50 51 52 53 53 54 54 54 54 54 54 55 55 56
8 9 7 6 8 8 9 10 10 11 13 15 15 13 10 10 11 10 9 9 9 8 6 7 11 11 6 6 8 12 17 18 16 17 20 21 21 21 23 26 30 33 36 39 42 44 47 48 49 50 51 52 53 53 53 54 54 54 54 54 55 55 56
5 6 6 10 13 12 10 12 11 10 10 10 10 9 9 10 10 10 12 10 7 7 6 7 11 11 7 7 9 16 21 19 17 18 20 20 19 19 20 21 24 29 34 38 41 44 46 48 49 50 50 51 52 52 53 54 54 53 53 54 55 55 55
5 7 7 10 11 9 8 8 7 8 10 10 9 8 9 11 12 10 12 11 8 8 7 7 9 10 9 10 11 15 18 16 15 18 21 21 21 20 20 20 21 24 28 33 38 42 45 47 49 50 50 50 51 51 52 53 52 52 53 54 54 54 54
4 9 9 7 5 5 5 2 1 4 8 11 13 13 10 11 12 11 10 8 8 9 9 9 12 13 11 10 10 10 11 11 13 17 20 21 22 22 22 22 23 24 25 28 33 38 42 45 46 48 49 50 50 49 50 50 51 52 53 53 54 54 54
3 7 6 3 6 7 4 5 5 4 4 3 7 14 16 14 13 13 10 8 9 10 10 14 19 15 8 5 4 4 6 9 11 15 19 20 21 23 23 24 26 25 24 25 29 33 38 41 43 46 47 48 48 48 49 49 50 52 52 53 53 53 53
2 3 2 4 7 8 8 7 7 7 6 9 9 9 14 11 9 10 10 10 10 8 10 16 18 12 9 7 5 4 4 6 9 14 18 20 21 23 23 23 25 24 22 22 24 27 31 36 40 43 45 46 48 48 49 49 50 51 51 51 52 51 52
3 3 4 4 6 10 7 3 5 4 2 4 4 4 8 7 3 6 9 9 10 8 8 12 14 13 10 5 2 2 3 5 8 11 14 16 17 17 18 19 21 20 19 20 21 23 27 31 35 38 40 43 45 46 47 48 48 48 48 49 49 50 50
4 3 4 3 3 4 3 2 1 1 3 4 3 3 5 6 3 3 4 8 11 9 5 8 13 13 8 4 3 3 4 5 5 6 7 8 9 9 10 12 15 15 15 16 17 19 22 25 27 31 35 39 41 42 44 45 46 46 47 47 47 48 49
5 4 4 3 3 5 5 3 4 5 5 1 5 2 6 4 8 12 9 7 10 10 7 10 12 10 5 6 6 4 7 8 8 8 5 3 1 2 3 5 8 9 10 11 11 12 15 18 21 25 30 35 38 40 42 43 44 45 46 45 44 45 47
6 6 5 3 3 5 4 3 7 10 7 2 5 3 6 5 13 19 14 10 11 11 10 13 12 7 7 7 7 8 11 11 12 11 10 9 8 6 4 1 1 3 4 5 6 6 7 8 12 18 24 29 34 37 38 41 43 44 44 42 41 42 44
7 8 5 4 4 4 3 4 8 11 8 3 6 5 5 10 19 23 18 14 13 10 11 14 10 6 7 11 14 13 13 14 14 13 13 13 13 13 11 9 7 5 3 1 1 3 4 3 5 10 16 23 28 32 35 39 42 42 42 41 40 41 42
6 6 5 4 5 3 2 3 5 9 4 3 3 7 13 16 21 23 19 15 13 8 7 11 9 12 14 16 17 14 13 14 14 14 14 14 14 15 15 14 13 12 10 8 5 0 3 4 5 7 11 17 22 28 33 37 38 39 40 41 41 40 42
5 4 5 6 5 3 3 3 3 7 2 4 6 11 15 17 19 21 18 14 13 9 1 5 10 16 17 16 16 14 13 13 13 13 14 13 13 13 14 15 15 15 14 14 12 8 4 2 4 6 8 12 16 22 28 30 32 34 37 38 38 39 41
5 5 6 5 4 3 2 2 3 3 2 6 8 7 8 15 19 20 16 13 12 10 6 4 7 12 14 15 15 14 13 13 13 14 14 14 13 13 13 14 14 14 14 15 15 13 10 7 4 4 5 8 11 16 20 22 25 28 30 32 35 37 39
4 5 5 4 6 5 5 8 9 7 2 5 7 5 5 10 15 17 16 13 12 11 7 3 4 8 12 14 15 15 15 14 15 16 15 14 14 13 12 11 11 12 12 12 12 12 11 10 7 5 4 6 9 12 15 17 19 22 25 28 31 33 36
6 7 5 7 8 6 7 11 13 10 6 5 6 7 7 8 9 11 12 11 10 11 10 7 7 9 13 15 16 16 16 16 16 15 14 14 13 11 10 10 10 10 10 9 8 8 9 8 7 5 3 3 5 8 11 12 14 17 21 25 28 30 33
6 5 3 6 7 7 8 11 14 13 9 6 8 11 11 9 8 6 6 8 10 15 18 14 11 11 13 15 17 17 18 18 17 16 15 14 12 10 9 9 9 8 8 7 7 7 6 5 4 4 3 2 1 3 6 7 9 12 16 20 23 25 28
6 5 1 4 7 8 7 7 10 13 10 8 12 14 12 11 10 6 5 7 10 16 20 19 15 13 12 14 15 17 18 19 19 18 17 15 14 12 11 10 9 8 8 8 8 7 7 5 5 4 4 4 5 5 6 7 7 9 11 15 17 19 20
8 9 5 4 6 4 5 9 9 10 10 11 14 15 11 10 10 9 6 6 10 15 19 20 18 13 11 12 13 15 17 18 17 17 17 15 14 14 13 12 11 10 9 9 8 8 7 7 7 7 7 8 8 8 9 10 10 10 10 12 15 16 17
6 7 5 5 4 1 4 11 13 10 8 8 10 10 9 8 9 11 10 6 10 16 18 19 19 14 9 9 12 14 16 17 17 17 17 16 16 15 15 14 13 12 12 12 10 8 7 6 7 7 8 9 9 10 10 11 12 12 12 12 13 14 15
8 12 12 5 1 1 6 13 15 11 7 2 3 5 6 6 6 7 10 10 10 16 17 18 19 15 7 5 9 14 17 17 18 18 18 18 18 17 16 15 15 15 14 13 12 11 9 7 5 5 6 6 6 8 9 10 11 13 13 14 14 13 13
16 24 22 11 5 3 6 13 15 14 12 9 8 7 2 3 2 3 6 10 11 13 16 17 18 13 5 3 8 14 17 17 17 17 18 18 18 17 17 17 16 16 15 14 14 13 12 10 8 7 7 7 8 8 7 7 8 9 11 12 13 13 14
23 24 19 11 7 3 8 13 12 13 14 13 14 12 8 5 3 3 5 6 9 10 13 16 16 11 5 5 10 14 17 17 17 17 17 17 17 17 17 17 17 16 15 14 13 12 12 11 11 11 11 12 12 11 9 8 7 7 8 9 10 11 13

ECMWFFLT2_850_spd_033.txt.gz
Wind_Speed
15 19 15 15 13 8 5 9 11 8 6 8 5 2 1 0 4 4 5 7 4 2 7 8 9 9 9 11 13 14 18 18 16 16 21 27 31 34 37 42 49 53 55 55 55 54 52 50 49 49 49 48 48 49 50 50 50 51 51 50 49 47 46
13 16 18 16 15 11 7 9 10 7 6 7 7 4 3 5 7 4 5 10 8 4 5 4 9 11 11 11 12 13 16 16 16 18 22 29 32 34 38 44 49 52 53 54 55 56 55 53 52 50 48 47 47 48 48 49 50 50 51 50 50 49 47
9 10 14 13 12 11 6 7 11 8 5 7 6 5 6 7 8 5 5 8 8 9 7 2 6 11 12 11 11 13 14 14 17 19 23 29 31 30 34 40 45 49 52 54 55 57 57 56 54 52 49 48 48 48 48 49 49 48 49 50 50 50 49
10 10 11 10 10 8 2 5 10 6 4 6 7 5 4 5 7 5 3 4 6 8 9 8 9 9 10 11 10 11 13 16 19 21 23 27 30 33 36 39 43 49 52 53 55 56 57 57 57 55 52 51 50 50 49 49 48 48 49 49 49 49 49
9 9 9 11 13 10 6 7 10 7 4 3 4 5 4 4 6 5 5 6 3 2 6 12 15 12 10 11 10 10 13 17 20 22 27 30 32 36 39 40 43 47 51 52 53 55 56 56 56 55 53 53 53 52 52 51 50 49 49 49 49 48 48
7 7 10 16 18 16 14 10 10 11 8 5 6 6 6 5 6 4 4 7 4 3 3 8 12 12 11 11 11 10 13 18 20 25 32 34 32 35 38 40 42 43 47 49 48 50 53 54 54 54 53 54 54 54 54 53 52 51 50 49 49 47 46
3 5 9 14 13 12 15 12 11 13 11 9 8 7 7 7 5 2 2 8 5 3 5 7 8 9 10 10 10 10 13 17 21 27 33 32 30 31 32 33 34 33 38 43 44 46 50 52 53 53 53 54 55 55 55 55 54 53 52 51 50 48 46
1 2 5 7 4 5 10 11 11 12 12 13 12 6 4 7 7 5 5 8 4 2 3 5 4 5 7 8 8 10 12 15 18 24 29 30 29 28 25 25 28 29 33 38 41 45 48 50 51 52 53 55 55 55 55 56 55 54 53 53 52 50 48
5 6 7 7 5 4 7 8 10 13 14 17 15 5 2 6 11 12 9 9 4 3 0 2 3 4 6 8 9 9 11 14 18 21 24 26 26 25 24 25 27 28 31 35 40 44 46 48 50 51 53 55 55 55 56 55 54 54 54 54 54 52 50
10 8 7 6 3 3 3 4 8 13 17 20 15 5 4 8 10 12 13 8 2 3 1 2 4 4 6 9 10 9 12 17 20 21 22 21 20 20 23 26 26 27 30 33 38 42 45 47 49 51 52 53 54 55 55 55 54 54 54 54 54 53 52
2 1 1 2 3 1 2 2 3 7 13 18 15 9 7 6 5 9 13 9 5 4 4 3 4 5 6 9 8 7 12 19 21 20 20 18 17 18 19 22 24 26 29 32 36 40 43 46 49 50 51 52 53 54 54 54 53 53 54 54 54 54 52
4 5 6 5 4 4 5 6 6 5 7 13 17 14 8 7 6 11 10 7 10 10 6 5 6 6 7 7 6 8 14 18 17 15 14 14 14 15 16 18 22 25 29 32 34 37 40 44 46 48 50 51 52 52 53 52 53 53 53 53 54 53 52
5 7 8 5 3 5 6 7 9 9 8 9 13 14 10 10 10 12 7 8 11 12 9 9 7 5 6 8 8 13 18 16 12 9 9 11 11 12 14 16 20 23 26 29 32 34 37 40 44 46 48 49 50 51 51 52 52 53 53 53 53 52 52
6 7 7 4 2 4 7 9 10 12 12 11 10 11 13 13 14 14 10 9 11 11 10 12 12 11 12 13 13 16 18 15 10 8 9 10 12 16 17 17 19 21 22 24 28 32 34 38 41 44 46 48 49 49 50 51 52 52 53 53 51 51 52
5 5 5 4 5 7 9 10 11 11 12 12 12 11 12 12 12 14 14 11 8 6 5 8 9 8 10 12 12 15 18 16 12 12 15 18 21 24 23 19 17 18 19 21 24 28 33 36 39 42 44 46 47 48 49 50 50 51 52 52 51 51 52
4 4 6 9 12 11 11 12 12 13 13 12 11 9 9 10 9 11 14 11 6 3 4 8 8 5 7 8 9 14 20 21 17 17 21 24 27 29 27 22 18 18 18 18 20 23 28 33 37 40 42 44 46 47 48 48 48 50 51 51 51 51 51
4 4 7 10 12 9 9 9 8 10 12 12 12 12 11 11 9 8 9 7 4 4 7 10 10 9 9 10 13 19 24 24 23 23 25 27 30 30 29 26 23 21 19 18 18 20 24 29 33 36 39 43 45 45 46 46 48 50 51 50 50 50 51
5 6 8 9 8 7 4 1 1 4 7 8 10 12 12 11 11 9 8 6 6 8 9 9 11 13 15 18 22 26 27 24 24 26 28 29 29 28 26 26 25 24 21 20 19 18 20 24 29 33 37 39 40 42 44 46 47 49 49 49 49 50 51
4 5 6 6 7 5 4 2 1 3 4 4 8 10 9 8 9 11 12 11 10 8 8 11 16 20 21 21 20 20 22 22 22 24 26 26 25 23 24 25 26 26 24 23 23 20 17 20 26 31 34 36 38 41 44 45 45 46 47 49 49 50 51
3 2 5 6 3 9 12 3 4 2 2 2 7 6 3 3 5 5 8 10 10 9 8 13 19 19 15 13 13 15 17 17 18 21 22 22 22 22 24 25 26 27 26 25 25 21 16 16 23 28 30 33 37 40 42 43 44 45 46 47 47 49 51
5 5 8 7 6 13 13 2 5 2 1 2 4 3 1 4 6 6 6 7 9 10 7 9 13 11 7 7 10 15 17 16 18 20 21 21 22 22 23 24 26 26 25 24 23 20 15 15 20 23 27 31 36 39 41 41 42 43 45 46 46 48 49
6 6 8 7 8 9 5 3 2 1 2 2 2 2 2 2 5 8 7 7 9 10 9 9 6 4 6 6 8 15 20 19 18 19 19 19 20 20 21 23 25 25 23 21 19 16 14 14 15 19 23 28 33 36 39 40 40 42 44 44 44 46 48
6 8 8 8 8 5 3 4 1 2 1 4 4 4 3 2 7 10 8 8 10 9 10 10 4 4 8 6 6 14 20 18 16 17 16 15 16 17 18 20 21 20 18 16 14 12 11 10 11 15 19 23 28 32 34 37 39 41 41 41 41 44 46
7 8 8 7 6 3 3 2 3 3 2 6 5 5 2 3 8 11 9 10 12 12 13 11 6 6 7 4 3 9 16 16 15 13 11 10 10 11 12 13 13 13 11 10 9 8 8 8 9 12 15 19 24 28 31 34 37 37 36 37 40 42 42
9 10 9 7 6 3 3 2 1 1 4 5 5 4 1 3 7 10 10 11 12 13 14 11 8 6 4 4 3 4 10 12 12 12 10 9 8 7 6 6 6 8 8 8 8 8 8 9 10 11 13 16 20 23 27 31 33 33 33 35 37 38 38
8 8 8 7 6 2 5 4 1 3 4 4 3 1 2 4 7 9 10 9 10 13 14 13 11 8 5 3 2 4 6 6 8 10 10 10 10 10 9 7 6 7 8 9 10 10 10 10 11 12 11 12 14 18 22 25 26 27 28 30 32 34 35
7 7 8 8 5 0 6 7 4 4 4 3 3 3 4 4 6 9 10 9 9 11 13 12 10 7 4 4 5 6 6 5 5 5 7 10 12 13 14 12 10 9 9 9 9 9 10 10 11 12 12 11 11 14 17 19 21 22 23 24 27 29 31
5 7 7 4 3 4 3 5 4 4 3 1 1 3 3 3 6 7 9 11 11 9 10 8 6 6 3 4 6 7 8 6 4 3 3 6 10 14 16 16 15 14 13 12 11 10 9 9 10 11 12 11 12 13 15 17 18 20 21 23 25 26 28
4 6 7 8 12 15 15 14 6 2 3 3 4 3 1 2 5 7 8 11 11 8 7 5 2 2 1 2 4 7 9 7 5 3 3 3 7 12 15 16 17 17 16 16 15 13 12 11 10 10 10 10 11 12 13 14 15 16 17 20 22 24 25
7 9 11 14 18 19 17 15 10 3 4 3 3 3 3 4 6 7 6 8 9 6 3 1 2 2 1 1 3 7 10 8 6 4 3 3 5 8 11 14 15 16 17 16 15 15 15 13 12 11 9 8 8 8 9 10 11 11 13 15 18 20 21
7 6 7 10 14 17 15 13 10 7 5 4 5 7 8 7 6 7 7 6 6 5 1 3 3 3 4 3 3 6 10 10 8 6 5 5 6 6 8 10 11 13 15 14 14 15 14 13 13 11 10 9 7 6 6 6 7 8 9 10 12 14 16
5 7 11 14 18 23 24 19 14 10 8 6 7 13 12 8 6 6 6 4 4 5 5 3 2 3 5 5 5 6 9 10 9 8 7 7 6 6 6 8 10 13 14 13 13 13 12 12 11 10 9 9 7 7 6 5 6 6 7 8 9 10 12
7 11 15 15 15 18 20 21 19 15 11 7 7 15 13 7 5 7 6 5 4 5 5 5 4 4 7 9 8 7 7 10 12 10 9 9 8 7 7 8 11 14 15 14 13 13 13 13 11 10 9 8 7 6 6 5 6 6 7 8 9 10 11
8 8 8 6 5 7 11 18 21 19 15 8 5 14 13 8 6 6 7 6 5 5 4 4 6 6 7 11 11 8 7 9 12 14 13 13 12 10 9 10 14 16 17 16 15 15 15 15 13 11 10 8 7 6 5 5 5 6 7 8 10 11 12
11 14 14 11 8 9 17 25 26 21 17 11 4 10 11 7 6 5 6 7 7 6 5 5 7 7 8 11 13 11 8 8 10 14 17 17 17 15 14 14 16 18 19 18 17 17 17 16 14 12 11 10 8 7 6 5 5 5 6 8 9 10 11
18 22 24 20 14 16 24 30 29 23 19 15 7 7 10 7 4 4 4 7 9 9 8 8 8 8 9 11 12 12 9 8 9 14 18 20 20 20 19 19 19 19 19 19 18 17 16 14 13 12 12 11 10 9 9 8 6 5 4 4 6 7 8
22 24 26 25 23 25 30 33 31 26 21 17 11 9 9 6 2 2 3 8 9 9 11 11 10 9 10 11 12 11 9 8 10 14 18 21 21 21 21 21 20 20 19 18 17 16 15 14 13 12 12 11 11 10 10 9 8 7 6 4 3 2 2

ECMWFFLT2_850_spd_036.txt.gz
Wind_Speed
18 21 20 18 15 9 9 12 13 11 11 10 8 5 4 4 7 7 8 9 8 6 7 8 9 9 11 14 15 16 17 18 18 18 21 23 24 26 29 31 32 33 34 35 37 40 42 43 44 45 44 45 46 47 47 47 46 46 46 46 45 45 45
20 22 22 20 19 13 8 11 13 11 11 11 8 7 6 7 9 8 9 12 11 8 7 8 14 14 12 13 14 14 15 16 17 18 20 22 24 26 29 30 30 31 33 35 36 38 41 45 46 45 45 44 44 45 46 46 46 47 47 47 46 46 46
18 20 19 16 20 21 13 8 12 11 10 10 8 7 8 9 9 8 11 13 10 9 6 4 10 15 14 14 13 14 15 15 17 19 21 23 23 23 26 27 28 30 33 35 37 38 42 46 48 46 44 44 43 44 44 45 46 46 46 46 46 46 46
16 15 14 12 15 19 15 10 11 11 8 8 9 9 7 8 9 7 9 11 8 8 9 8 8 10 11 13 13 13 14 16 18 20 20 22 22 23 24 26 28 31 34 36 37 38 39 42 46 46 44 44 44 43 43 44 45 45 45 45 46 46 46
16 12 13 15 15 15 14 12 12 12 9 7 8 9 9 8 8 7 7 7 4 1 5 11 12 11 11 11 11 12 13 16 19 19 19 20 22 25 26 27 29 31 32 34 34 34 34 34 37 40 41 44 44 43 43 44 44 45 45 45 45 46 46
13 12 13 17 17 16 15 12 12 13 11 9 8 9 10 9 8 7 6 6 3 3 2 5 7 9 9 10 11 10 12 15 16 17 17 17 18 21 23 24 25 26 27 28 29 29 30 31 33 36 38 40 41 43 44 43 44 44 44 45 45 45 46
10 12 15 18 19 19 18 14 13 13 12 11 9 8 8 9 9 8 7 7 3 5 5 2 1 4 6 8 9 10 11 13 13 13 13 12 13 15 16 17 18 19 20 22 25 27 30 33 34 35 36 38 40 43 43 41 43 44 44 44 44 44 44
8 9 12 16 19 19 17 15 15 14 15 13 10 8 7 7 10 9 7 8 5 5 4 3 4 5 6 6 7 7 9 9 9 9 9 8 9 11 12 14 15 16 17 20 25 29 33 35 36 35 36 38 40 42 41 41 43 46 45 43 44 44 43
8 8 10 13 17 16 12 13 17 17 18 18 14 11 8 8 11 11 9 7 4 5 5 4 4 5 4 3 4 5 5 6 7 6 4 4 7 8 11 13 14 17 19 21 26 31 34 37 37 36 37 38 39 42 43 43 44 46 45 44 44 45 43
11 11 9 8 11 14 11 12 19 21 21 22 15 10 10 9 10 11 10 6 3 7 6 6 6 6 4 3 3 3 3 5 6 4 0 3 5 6 8 11 14 17 20 22 26 29 33 35 35 36 38 38 37 39 41 42 42 43 43 43 45 46 46
5 3 2 3 2 11 16 17 20 20 21 22 16 11 10 9 9 11 11 8 5 8 9 8 7 5 3 2 3 5 4 2 1 1 3 3 6 7 6 9 11 13 17 20 24 27 30 32 32 34 37 36 35 36 38 39 39 39 40 42 45 47 47
2 3 4 5 3 7 15 18 20 20 20 21 19 15 12 9 9 10 10 12 11 9 10 8 5 3 3 3 5 6 4 3 5 4 6 6 6 7 5 5 6 8 12 17 21 25 27 29 30 32 33 34 35 36 36 36 36 36 37 40 44 46 48
2 2 2 2 1 2 5 10 14 17 19 21 20 18 16 13 10 8 7 12 14 12 11 10 7 6 6 7 8 9 8 8 7 6 9 10 6 7 5 3 3 6 10 13 17 22 25 27 29 31 32 33 35 37 38 37 36 36 36 39 43 46 48
3 3 2 1 1 2 4 7 9 11 14 16 16 16 17 17 15 12 11 13 13 12 12 13 13 12 12 12 13 14 15 16 15 12 13 14 9 6 5 6 6 10 12 12 13 16 21 26 29 31 32 34 36 38 38 38 38 37 36 38 43 46 48
5 5 5 3 3 4 6 9 10 11 12 13 12 12 14 14 14 14 15 14 12 10 9 10 11 11 10 11 12 15 18 20 21 19 18 16 14 12 10 7 8 15 18 16 14 13 16 21 27 31 33 34 35 35 34 36 38 38 37 38 43 46 48
5 6 6 6 5 6 10 12 14 14 13 13 12 11 12 12 12 14 14 13 10 8 8 8 9 10 11 11 14 16 17 19 21 20 19 18 17 18 17 13 15 21 22 19 19 17 15 16 21 28 32 34 34 34 34 35 35 35 36 38 43 46 47
5 6 5 5 4 7 11 12 15 17 16 14 14 13 14 14 13 13 12 10 8 8 9 10 10 11 13 13 14 16 17 19 21 21 21 21 21 21 21 18 18 23 23 20 19 19 17 16 17 21 27 31 33 35 35 32 30 30 34 37 41 44 45
4 4 2 3 6 9 6 3 7 14 16 16 16 15 15 16 14 12 11 9 8 8 8 8 8 9 11 13 15 17 17 17 18 20 22 22 22 23 23 21 21 25 28 24 20 19 18 17 16 17 22 26 29 32 33 32 30 32 34 35 38 42 44
5 2 2 7 8 5 1 5 3 4 8 10 11 11 12 13 13 14 14 12 11 10 9 9 10 12 13 15 15 16 17 16 16 18 21 22 22 23 23 23 24 27 29 26 22 20 19 17 16 18 21 23 26 29 31 33 35 37 36 36 37 40 43
5 4 6 8 3 2 2 3 4 3 5 6 7 11 14 13 10 9 10 10 10 11 11 12 14 13 13 13 14 17 19 19 18 20 21 20 20 20 20 21 23 26 27 25 23 22 20 18 17 18 20 21 23 26 28 32 35 37 38 39 39 41 43
6 6 7 7 3 3 4 5 5 4 4 4 3 8 8 5 1 1 4 7 9 10 10 9 10 11 10 10 13 19 23 22 21 21 20 19 19 19 21 24 26 27 27 25 24 22 20 18 16 16 18 19 22 24 26 29 33 35 37 40 42 42 42
6 6 7 7 7 7 5 6 7 5 3 4 2 4 3 6 5 1 2 4 6 8 7 6 7 7 8 9 10 14 19 18 17 16 15 15 17 19 22 25 25 25 26 25 23 21 19 17 15 15 17 18 21 24 26 28 30 32 36 40 42 42 42
7 8 8 8 7 4 3 7 7 6 3 3 2 4 5 5 6 2 2 3 5 5 5 6 5 5 8 9 4 7 9 6 6 7 8 10 13 16 18 19 21 22 23 23 20 18 17 16 14 15 18 19 21 24 27 27 27 31 36 39 40 41 41
8 8 8 6 6 2 4 5 6 6 3 2 5 6 4 5 5 3 2 4 6 6 6 6 4 5 7 6 5 10 11 8 6 8 9 11 14 13 12 14 18 19 18 17 15 13 14 16 14 15 17 19 21 23 25 25 26 30 34 36 37 39 40
8 10 8 6 5 3 2 5 4 5 2 3 5 4 2 3 1 2 2 5 6 6 7 6 5 6 8 10 12 12 11 9 8 8 9 10 11 10 10 14 16 13 11 10 11 12 15 15 14 16 17 18 20 22 22 24 25 25 25 30 34 36 36
8 8 8 7 6 2 1 7 6 2 3 4 1 0 2 2 3 2 3 5 5 5 8 8 9 11 13 16 16 13 11 10 8 8 8 7 7 8 10 11 9 6 6 6 7 10 12 13 14 17 18 17 19 21 20 20 21 20 20 25 30 31 31
7 8 8 8 6 2 8 5 4 4 4 4 7 4 2 2 3 4 4 5 4 5 8 10 11 13 14 15 14 13 12 11 8 7 6 6 7 7 7 6 4 2 3 4 5 8 10 11 13 16 16 16 17 17 17 16 17 18 21 25 26 25 25
5 9 8 3 2 5 9 7 3 4 8 10 11 9 6 3 4 5 5 5 5 7 10 11 11 12 12 13 13 12 12 10 7 6 5 5 5 6 5 4 2 2 2 2 4 7 9 10 12 14 15 15 15 15 17 18 18 19 21 23 23 22 21
4 7 6 8 12 12 10 8 8 12 16 14 11 10 9 7 6 6 6 6 7 8 9 10 11 10 10 10 11 10 10 8 6 5 4 3 3 3 4 3 1 3 3 2 1 1 5 8 11 13 15 15 16 16 17 18 18 18 19 19 18 18 19
7 10 12 13 16 18 14 12 12 14 16 14 12 11 10 8 8 7 7 6 7 7 7 7 8 8 8 8 8 8 7 6 5 4 3 1 1 2 3 2 2 3 3 4 4 4 4 5 7 10 13 14 15 15 15 14 14 15 15 15 15 16 16
6 7 8 10 14 17 17 16 15 15 14 13 13 12 11 10 9 8 6 5 5 4 3 3 4 3 3 4 5 4 4 4 3 2 2 0 2 2 2 3 3 4 4 5 5 7 7 6 5 5 8 10 11 12 12 13 13 13 13 14 13 14 14
8 8 10 15 19 21 22 20 17 14 14 15 16 15 13 11 9 8 5 3 2 2 1 2 2 2 1 3 3 2 2 2 1 1 1 1 3 3 3 3 3 5 6 6 7 8 8 7 7 6 6 6 7 7 9 10 10 9 11 13 12 12 13
10 11 13 16 18 19 21 21 15 10 11 15 18 19 16 13 10 9 6 1 2 2 1 1 2 2 2 4 4 2 1 1 2 1 1 1 3 3 3 3 4 5 6 7 8 8 7 7 6 6 6 6 6 5 6 7 8 9 11 12 10 10 10
9 9 9 10 10 10 13 14 11 11 13 15 18 20 19 15 13 11 7 3 2 3 3 3 2 2 3 4 4 3 3 4 3 3 3 3 4 4 5 5 6 6 6 7 7 8 7 6 6 7 7 6 6 5 5 5 6 8 11 11 10 9 8
11 13 14 13 12 13 16 18 17 17 18 18 18 20 19 17 14 11 8 4 4 4 4 4 4 4 3 4 5 5 5 5 5 6 5 6 6 6 6 7 7 7 7 7 7 7 7 7 7 7 6 6 5 5 5 5 5 6 8 9 9 8 8
16 20 21 19 17 20 24 24 22 20 20 19 20 21 20 17 13 10 8 4 4 6 4 3 4 6 5 4 6 6 6 6 7 7 8 8 8 8 8 9 8 8 7 7 7 8 8 7 7 7 6 6 5 5 4 5 5 6 7 7 6 6 6
19 21 21 21 21 24 27 26 25 24 23 22 23 22 19 17 14 11 7 4 6 10 7 4 5 8 7 6 8 8 7 8 9 9 10 10 9 9 10 10 9 9 8 8 8 8 9 9 9 8 8 7 7 6 6 5 5 5 6 6 6 5 5